Weather in Yukseyevo

Russia / Perm Krai     59°52′01″N   54°19′21″E
temp.,
°C
wind,
m/s
gust,
m/s
humid.,
%
clouds,
%
prec.,
mm/h
press.,
hPa
HPBL,
m
28 february, sun
sun2823:00−19e399689 0.1 1011285
02:00−22e379637 0.0 1012184
05:00−24ene379619 0.0 1013148
08:00−25ene36962 0.0 1013145
11:00−21ene36921 0.0 1013274
14:00−16ene358942 0.0 1013486
17:00−14ne359071 0.0 1014499
20:00−19nne239876 0.0 101530
1 march, mon
mon123:00−20nne229959 0.0 101721
02:00−21nne1210081 0.0 101820
05:00−23nne1110055 0.0 101920
08:00−24nw00990 0.0 102020
11:00−18s12920 0.0 1019166
14:00−13ssw248725 0.0 1018418
17:00−11ssw368955 0.0 1016499
20:00−15s499590 0.0 1014235
2 march, tue
tue223:00−14ssw4109295 0.0 1012380
02:00−14s51191100 0.0 1009388
05:00−13s51194100 0.4 1005485
08:00−12s51194100 0.7 1002535
11:00−11s51094100 1.7 1001558
14:00−10s4893100 0.8 999593
17:00−10s4893100 1.3 999534
20:00−11s3895100 0.4 999344
3 march, wed
wed323:00−12s3696100 0.8 1000234
02:00−13s2497100 0.2 999134
05:00−13s2297100 0.3 100059
08:00−14ssw1197100 0.1 99920
11:00−9w1193100 0.1 1000209
14:00−5nnw2492100 0.2 1000454
17:00−5nnw3694100 0.8 1001590
20:00−8nnw41092100 0.4 1002559
4 march, thu
thu423:00−11nw389598 0.4 1003223
02:00−14nw389747 0.0 1003167
05:00−11nw399560 0.1 1004287
08:00−14wnw389695 0.1 1005236
11:00−12wnw359495 0.1 1005266
14:00−7w358888 0.0 1004573
17:00−7sw368792 0.1 1003686
20:00−9ssw4109298 0.0 1002460